Ping Pong Board
บอร์ด: คนไทยเก่งปิงปอง
บอร์ด: การแข่งขันทั่วไทย
บอร์ด: พูดคุยทั่วไป-สินค้ามือ 2
บอร์ด: สินค้ามือสอง On FB
บอร์ด: แปลงสินทรัพย์เป็นทุน
บอร์ด: ขายสินค้าใหม่ มือ 1
บอร์ด: รีวิวอุปกรณ์
บอร์ด : รีวิวอุปกรณ์ On FB
บอร์ด: เทคนิคการเล่นปิงปอง
บอร์ด: การเมืองเรื่องปิงปอง
บอร์ด: บริจาคอุปกรณ์เหลือใช้
บอร์ด: ปรึกษาอาการบาดเจ็บ
บอร์ด: ปิงปองทุกจังหวัด
บอร์ด: ชมรมคนเล่นยางเม็ด
บอร์ด: จับแบบไม้จีน ไม้ญี่ปุ่น
บอร์ด: สนทนาภาษาปิงปอง
บอร์ด: นัดกันไปเรียน ไปเล่น
บอร์ด: Chat Online
บอร์ด: เล่นเกมส์ปิงปอง
บอร์ด: เกมส์ออนไลน์
สำหรับสมาชิก
นามปากกา
รหัสผ่าน
ลืมรหัสผ่าน
สมัครสมาชิกใช้งาน
กระทู้โดนใจชาวปิงปอง
สถานที่รับสอนปิงปอง
บอร์ดซื้อขายสินค้ามือสอง และพูดคุยแลกเปลี่ยนความคิดเห็นกัน
ตั้งกระทู้-เฉพาะกีฬาปิงปอง
ค้นหาข้อมูล :
ค้นหาจาก :
@เรื่อง.........FromAnswer-ReaderLast Answer
Jun ขอแลกครับ Tennergy8/97110/10/2553 12:42:27
ในบอร์ดใครเลน Black Berry กันบ้าง note7/87510/10/2553 12:38:23
ขายยางYASAKA EXTEND HS แดง ฟองน้ำ MAX และ XIAM VEGA PRO ดำ pum_ma667/123210/10/2553 12:16:39
nittaku hurricane 2 (ฟองน้ำญี่ปุ่น) B7000M3/98210/10/2553 11:54:49
ถึงคุณpimpleครับ juneonion0819/105910/10/2553 10:36:59
สอนปิงปองสำหรับผู้ที่สนใจ อิอิอิ3/93210/10/2553 9:48:29
ตามหา gegerly 21 ด้ามFL STสภาพ 90% ขึ้น ratan12/90510/10/2553 9:34:00
รับยางOPTIMUM MPสีแดงแผ่น4เหลี่ยม 1 แผ่น HANGMAN1/63610/10/2553 9:23:19
แลกกับอะไรดีนะ TKMP34/205710/10/2553 9:22:33
รับ ACUDA BARACUDA แดงครับ เอกหนองบัว8/82910/10/2553 9:15:53
ตามหา AVX J - POWER ( ลงรูป + ราคา ) ด้าม FL โดนตี11/107810/10/2553 8:01:32
อยากทราบที่ซ้อม จังหวัดปัตตานี โดนตี11/89410/10/2553 7:41:35
รับไม้ donic epox offensive ด้าม St คับ Notorious1/81310/10/2553 0:26:59
มี rossi force fl มือ 1 ต้องการแลก viscaria และไม้ที่เป็น zlc และ stradivarius interfear25/164110/10/2553 0:02:05
สนใจเทคโนโลยีระหว่าง donic BURN กับ andro TEMPER TECH coffee guide17/20669/10/2553 23:23:27
ผลการทดสอบ TM ZLC เทียบกับ JUN mangmum49/25929/10/2553 23:13:09
หายาง Omega 2 Hinoki0/6439/10/2553 21:52:28
ใครแก่พอที่จะแข่งรุ่น 45ปีขึ้นไปยกมือขึ้น คนตรัง17/11159/10/2553 21:10:06
หาไม้ Clipper WRB ด้าม CS ราคาเบาๆ งบเหลือน้อย คนไม้จีน10/8439/10/2553 19:54:13
ขายไม้ Killerspin diamond C สภาพใหม่ครับ paichayon20/14489/10/2553 19:33:16
ขออนุญาตขายไม้และยางปิปองมือสองครับ คนเหนือ16/15019/10/2553 15:28:38
รับไม้ Tibhar Stratus Samsonov Carbon St ครับ Zigzag0/6319/10/2553 14:56:04
รับยาง สีดำ 1 แผ่น ครับ ilpp@siam8/8539/10/2553 14:25:11
ใครรู้บอกที sarduis1/6369/10/2553 14:17:00
ขออนุญาติขายชุดวอร์ม มิซูโน่ สักชุดคร้า peanut6/12629/10/2553 11:43:45
เปิดสอนปิงปองสำหรับผู้ที่สนใจทุกเพศทุกวัยนะครับ อิอิอิ0/7209/10/2553 11:07:55
รับซาเดียสมือสอง สภาพดี bell4/10049/10/2553 10:42:39
GERGELY ตูดสติ๊กเกอร์ Hoo-La10/11539/10/2553 9:15:16
ใครมีไม้ M.MAZE-ST/ Innerforce ALC บ้างครับ Nai19800/6609/10/2553 7:48:30
ขายไม้ครับ...เข้ามาดูก่อนครับพี่น้อง!!! Deathscythe36/24559/10/2553 7:26:13
ขาย ไม้ & ยาง สภาพดี Tennergy26/18819/10/2553 2:02:58
อยากทราบยางของma long ครับ paytong27/74419/10/2553 1:57:31
ขายTG 05 2.1 แดง สภาพดีมาก bueipong14/12889/10/2553 1:37:26
Wang liqin แก่แล้ว รึว่าไม่พร้อม DoMiTa4024/19809/10/2553 1:34:29
เปิดสอนปิงปองสำหรับผู้ที่สนใจทุกเพศทุกวัยนะครับ อิอิอิ1/7299/10/2553 1:33:32
ขายลูกซ้อมครับ Pimple Lover1/9539/10/2553 1:32:43
ขาย ไม้อลิเลตST+ยางเทพ ราคา ลูกอ๊อด ชางมิน18/17119/10/2553 1:32:28
ขออนุญาตขายโต๊ะปิงปองราคาถูก สภาพสวย ขนาด24x24ครับ RJPINGPONG126/22019/10/2553 1:31:50
หน้าไม้เสี้ยนหลุด ซ่อมอย่างไรครับ นพ. ณรงค์7/14179/10/2553 1:31:24
รีวิวให้ที B7000M8/11809/10/2553 1:31:11
สนใจ Palio Macro Era แดง parinya1/8819/10/2553 1:30:59
มี TG 05 แดงหน้าไม้ Amultart อยากแลก Donic F3 Mozlilez24/11469/10/2553 1:30:45
มีใครตีอยู่ที่ตึกสำนักงานของดีแทคบ้างคะ desperado3/10169/10/2553 1:30:27
!!!-ขาย Bryce speed fx-!!! DoMiTa4012/10259/10/2553 1:29:59
เตือนภัย บุคคลอันตราย AIR SOFT 93/14349/10/2553 1:29:14
นาทีทอง...ขายยาง PRYDE 40 ดำแดง MAX แผ่นสี่เหลี่ยมใหม่ อิอิอิ8/10399/10/2553 1:28:50
[b] ....ประกาศ !!! ทีมอิมพีเรียลสำโรงเปิดรับสอนปิงปอง ช่วงปิดเทอมนี้ [/b] impingpong13/17529/10/2553 1:27:45
โปรโมชั่น DONIC DONIC3/9949/10/2553 1:24:37
อยากได้keyshotlightfhk,stหรือfl คราฟ.... freedomsky1/6549/10/2553 1:22:03
ขายขาดครับ เสื้อ mono21/13679/10/2553 1:21:53
ขายยาง Tenergy 05 ฟองน้ำ 2.1 สีแดง คับ หนุกหนาน7/14739/10/2553 1:21:51
วิธีบล๊อกลูกตบทำไงคับ jamelnw9/12309/10/2553 1:21:38
ขายยาง เม็ดสั้น FLARESTORM สภาพดี เฮฮา*o*10/8579/10/2553 1:20:41
ขายยาง byce สีเเดง ดำ panther2/8329/10/2553 1:20:16
รับ เม็ดสั้น บุก สีดำ ครับ แมวตกมัน17/14749/10/2553 1:19:57
ขายยาง Fusion แดง สภาพดี ราคาถูก DeepBlue10/9639/10/2553 1:13:43
รับยางดำ sbttc1/6019/10/2553 0:32:59
(((( ขาย )))) ไ XIOM SPEED สภาพดีไร้ริ้วรอย nobutakajung22/14029/10/2553 0:22:48
ซื้อ XTEN HS สีดำ juneonion08113/9528/10/2553 23:39:58
บทสัมภาษณ์ของ Liu Guoliang ตอนที่ 2ครับ asturias12/16538/10/2553 23:17:50
ขายไม้ Donic EPOX TOP SPEED - FL ครับ DeepBlue4/8788/10/2553 23:17:21
รับ Tenergy 64 เฟริส_tlec6/8468/10/2553 22:59:31
มี ไม้ Xiom Axelo Fl สภาพดี + เงิน มาขอแลก Timo ALC หรือ ALC อื่นๆ backhand28/20228/10/2553 22:54:35
ต้องการยาง YASAKA PRYDE 40 ครับ sarduis1/7048/10/2553 22:32:49
ขายยางYASAKA " MARK V " gps มือ1 ถูกๆครับ คนเหนือ6/9938/10/2553 22:27:32
รับยาง -andro hexer & baracuda-max chaly6/8978/10/2553 22:25:49
ขายไม้ Andro KINETIC SUPREME OFF- Zylon/Kiso Hinoki bbbsw13/12668/10/2553 21:30:32
รับซื้อไม้ clipper CR ด้ามอะไรก็ได้ครับ natnaaut8/8988/10/2553 21:22:38
นาทีทอง...ขายยาง PRYDE 40 ดำแดง MAX แผ่นสี่เหลี่ยมใหม่ อิอิอิ13/10768/10/2553 19:42:49
ยาง4แผ่น 450บาท เท่านั้น และอื่นๆ มือ22221/12488/10/2553 19:16:33
รับสมัครช่างแอร์มีประสบการณ์ประจำเกาะสมุยมีที่พักอาหารฟรีครับ เอ๋สมุย2/9348/10/2553 17:58:55
รับยาง Acuda S2 หรือ Baracuda - max สีดำ ราคาเป็นกันเอง DeepBlue6/9998/10/2553 17:23:15
ใครมี คีย์ชอต ไลท์ ปล่อยบ้างคับ สนใจคับ Timo Back1/7948/10/2553 16:03:20
ขายไม้ kong lin hui สภาพเยี่ยมถูกๆครับ jojos15/13508/10/2553 15:41:23
ขายยาง Xiom Vega Pro (แดง) and Europe(ดำ) 2.0 mm Rays10/16168/10/2553 15:37:56
((((( ขาย ))))) Butterfly Gergely ราคาย่อมเยาว์ครับ nobutakajung14/19798/10/2553 13:26:55
รีวิว TG 05 fx.ให้หน่อยครับ เด็กดี0/6868/10/2553 11:38:20
ขายยาง PRYDE 30 สภาพดี DeepBlue12/10418/10/2553 10:19:40
ขอความช่วยเหลือหน่อยครับ satanapat_amp3/7788/10/2553 9:54:20
ขออนุญาตขายไม้สวยๆ nittaku รุ่น acoustic ครับ คนเหนือ18/16468/10/2553 9:53:28
ขายไม้ but Defence Alpha ครับ center9/10448/10/2553 9:47:22
ต้องการยาง andro roxon ครับ sarduis0/5908/10/2553 8:53:00
ต้องการยาง xiom omega 3 ครับ sarduis5/7868/10/2553 8:42:40
ต้องการยาง tenergy 05 ครับ sarduis7/8738/10/2553 8:35:32
ขายอีกรอบ AMUTART -ST +ACUDA S2 +BARACUDA ชางมิน31/22258/10/2553 7:15:02
ช่วยแนะนำไม้หน่อยครับ คนตรัง1/7328/10/2553 5:33:14
ถ้าจะซ์้อของในบอร์ดต้องทำยังไงบ้างคะ DEARIE1/7018/10/2553 0:04:52
ช่วยด้วยครับ!~ hakung11116/15227/10/2553 23:42:36
รับยางแดง-ดำสภาพดี ที่ไม่ต้องแปะกาวบ่อยคับ Notorious0/6487/10/2553 23:37:15
ขายยางคับ ขายยาง JOOLA MAMBO H สภาพ 95 เปอ ราคาถูก patitunk10/13677/10/2553 23:05:19
ขาย ไม้รับ บัตฯ Timo Back7/9617/10/2553 21:15:19
สนใจครับ Fly horse0/6447/10/2553 21:10:01
ขาย boll tri carbon AN eak_00118/12467/10/2553 20:25:49
รบกวนช่วย Vote ไม้ butterfly รุ่นเก่า ตูดผีเสื้อ ให้หน่อยนะขอรับพี่ๆ น้องๆ พรพจน์20/20037/10/2553 18:04:06
ไม้ที่ดีทีสุดที่เคยใช้ ขอคำแนะนำครับ TYT.G/W14/16247/10/2553 17:59:23
((((( ขายซองปิงปอง ))))) herpes6/11007/10/2553 16:37:29
ขายไม้ Kreanga power กับไม้ kenny pro WWlek7/9537/10/2553 16:36:30
ประมุลอีกแล้ว เสื้อมิซุโน่ สวยๆสุดๆ ปิด วัน อาทิตที่3 ตค. ครับ mono35/12947/10/2553 15:34:01
รบกวนผู้มีความรู้เกี่ยวกับเม็ดสั้น ช่วยชี้แนะด้วยครับ (ขออนุญาตนอกเรื่อง ซื้อ-ขาย นะครับ) Timo Back0/6807/10/2553 15:22:58
ขายยางเม็ดยาวdr.monster แดง wut0074/8227/10/2553 14:23:08
ขายยางมือ 2 สวยๆหลายแผ่นไม่แพง bueipong22/14817/10/2553 12:26:45
ขาย ไม้ปิงปอง 3 ไม้ chang_pkp23/20367/10/2553 10:02:13
อยากทราบราคาไม้ XIOM STRADIVARIUS มือ 2 ครับ HANGMAN1/8397/10/2553 9:45:09
นานๆ ขายที ฮ่ะ Bobbie20/13747/10/2553 8:47:37
ขาย Timo Boll Spirit (ST) พร้อมยาง ใหม่มากๆ เอ๋ BL26/25927/10/2553 7:28:59
ขอแลกไม้ค่ะ OH_CNX16/16977/10/2553 7:24:15
รับไม้ Timo boll ZLF or T5000 ด้าม ST Fly horse0/5947/10/2553 6:39:54
ข่าวประชาสัมพันธ์จากทางเซ็นทรัลบางนาครับ ปิงปองเซ็นทรัล0/10057/10/2553 0:06:57
ขายเสื้อ Li Ning เกล็ดมังกรทอง ทีมชาติจีน WTTC team 2010 Moscow vipmember49/35746/10/2553 23:56:45
ขายไม้BUTTERFLY KISOHINOKI 7 pum_ma667/10336/10/2553 23:47:20
ขออนุญาติ ขายไม้ DONIC EPOX CONTROL ครับ pum_ma6628/16086/10/2553 23:32:00
สอบถามยางรุ่น DHS Memo 2 กับ 3 ต่างกันอย่างไรคับ Notorious0/7856/10/2553 23:11:06
ขอเชิญเพื่อนนักปิงปองร่วมแข่งขัน พิษณุโลก โอเพ่น ครั้งที่ 1 vipmember2/10176/10/2553 23:03:07
ขาย ยางdonicdesto f3 สีดำ สภาพ 95 ครับ เข้ามาดูครับ maze14/10216/10/2553 22:39:39
ขายยาง NEO SKYLINE III แดง หรีอแลกกับยางอื่นๆครับ wut0072/7806/10/2553 22:38:14
+++ใครร้องอย่างไรบ้าง..เวลาตีปิงปอง..+++ herpes43/16856/10/2553 21:10:54
ขายไม้ปิงปอง ๒๕๕๐ บาทคร๊าบบ Anatawa17/16366/10/2553 21:08:34
ขายไม้ YASAKA EXTRA 3D version ยุโรปมือ 1 ครับ Pimple Lover3/9816/10/2553 20:48:16
ขายไม้LIU GUOZHENG pingpongmin2/7986/10/2553 19:13:55
ขายไม้Nittaku LIU GUOZHENG ยางXTENดำแดงสภาพดี pingpongmin52/21366/10/2553 19:11:30
**ขออนุญาตขายGergely+ยาง2,400รวมส่งครับ** Surakob16/12926/10/2553 18:06:39
ขายครับ Amultart ยางด้วยสองด้านครับ kase67/18446/10/2553 17:46:26
รังสิต คลอง8 เปิดสอนกีฬาเทเบิลเทนนิส Tornado0/9356/10/2553 17:06:51
ขายยาง NEO SKYLINE III แดง wut0073/9726/10/2553 15:00:16
รับไม้ Matsushita pro special ด้ามตรง เพอสัน4/8916/10/2553 14:43:24
ขายยางเม็ดกึ่ง dr diamant แดง เด็กดี3/9596/10/2553 14:33:20
โหลๆๆ123...อืมๆรบกวนพี่ๆน้องๆอีกรอบคร้าบ Nai19804/9386/10/2553 13:59:13
เรื่องเก่าเล่าใหม่ (((( ขาย ))) XIOM SPEED FL ครับ nobutakajung38/15866/10/2553 13:10:46
ขาย hurricane king dandc9/12526/10/2553 11:30:34
-------ขายไม้ Nittaku KVX พร้อมยาง------ chat-vios10/13576/10/2553 6:25:54
สอบถามเกี่ยวกับยาง HURRICANE NEO III DexCiMo3/10386/10/2553 0:49:12
ขายซองปิงปอง vtep22/12635/10/2553 23:34:08
ศูนย์กีฬา 72 พรรษา (ย่านมีนบุรี) เล่นกันตอนกี่โมงครับ pLus+4/12635/10/2553 22:45:29
[b] รับไม้ [/b] [font:blue] Timo ALC, ZLC หรือ Jun, Amultart มือสอง [/font] K9_130912/10275/10/2553 21:43:07
ขายไม้ Yasaka Crabon 3d max 1150 บาท ครับ hakung11127/12345/10/2553 21:29:15
ขายไม้BTF KISO HINOKI V+ยางเม็ดยาวHALLMARK+ยาง729 wut0072/8515/10/2553 21:22:26
ขาย G2 ดำ สวย juneonion0817/7945/10/2553 20:50:48
ขายยางvstageดำ สวย 350 juneonion0814/8085/10/2553 20:49:30
ขอถามอะไรหน่อยครับ Zigzag0/6805/10/2553 20:18:13
ขอวิธีไม่ทำให้หน้าไม้เป็นเสี้ยนหน่อยครับ hakung11122/25455/10/2553 20:10:42
+++ ขาย Kong Ling Hui Special ST+++ autoresume11/12405/10/2553 17:29:19
@ คุณ ananinii mangmum4/9785/10/2553 16:27:25
ขายรองเท้าปิงปอง Mizuno Wave drive สีแดง gh2man2/28335/10/2553 15:24:08
ขายไม้ บัต ตูดผีเสื้อ Timo Back16/13245/10/2553 13:37:59
ถึงคุณ apples kitty1230/6635/10/2553 13:27:12
to k nevery costheta18/10515/10/2553 12:30:17
ขออนุญาตขายไม้สวยๆ nittaku รุ่น acoustic คนเหนือ15/10905/10/2553 12:22:32
ขายยาง Renanos มือ1 ดำ แดง bueipong17/12485/10/2553 11:32:28
ตั้งรับไม้ธรรมชาติราคาดีๆๆ Nittaku Tenor,Acoutic pongmusic17/19675/10/2553 11:09:50
ฝรั่งตัวหย่าย ตีไม่ทัน นพ. ณรงค์5/10715/10/2553 11:04:23
ขายไม้Nittaku Ludeack power testman16/14255/10/2553 9:19:52
ถึงคุณ onionname ค่ะ desperado11/9085/10/2553 7:28:02
Palio THOR'S ฟองน้ำพรุน คุณได้ลองรึยัง เอ๋ BL20/23775/10/2553 7:21:22
ยางปิงปอง scirocco และ illumina note29/16275/10/2553 6:34:45
ร้านปิงปองเซี่ยงไฮ้โปรโมชั่นวันเกิดดาวโหลดดูไม่่ได้GERGELY21เหลือเท่าไหร่คับ rocktor12/15535/10/2553 6:22:58
รับไม้Butterfly Joo Se Hyuk - ST ครับผม หวังเฉาหม่าฮั่น12/9705/10/2553 0:52:32
สอบถาม Pre Order ไม้ Jun ST (นำเข้า) Bobbie8/11545/10/2553 0:21:44
ขายไม้TIBHAR SAMSONOV CARBON+ยางSTIGA ALMANA wut0073/11065/10/2553 0:12:33
ขายไม้ GAKAXY WOODEN 967 FL hakung1116/7544/10/2553 23:04:22
ขายยาง PRYDE 40 ดำแดง MAX แผ่นสี่เหลี่ยมใหม่ อิอิอิ2/7654/10/2553 22:20:20
ถามพี่ช้าง zumizoom0/5904/10/2553 19:42:48
-------ขายไม้ Nittaku KVX พร้อมยาง------ chat vios6/10564/10/2553 16:42:15
ถึง คุณเพอสัน chang_pkp19/11014/10/2553 15:39:05
ไม้ธรรมชาติของ Donic รุ่นไหนน่าใช้บ้างครับ Zigzag3/8414/10/2553 15:36:40
ทราบได้ไงครับ sadius รุ่น1-2-3 ฯลฯ และไม่มีรหัส code รุ่นไหน BEE80/6824/10/2553 14:30:56
รับไม้ต่อไปนี้ ด่วนมากคับ Notorious2/8744/10/2553 13:11:45
ประมูลไม้ Viscaria พร้อมยางเทพ เพอสัน48/26904/10/2553 12:18:48
ถึงคุณnumber08 Surakob13/9264/10/2553 10:36:30
ขายยาง Xiom Vega Pro ดำ Max หมูกรอบ2/9324/10/2553 9:22:39
ขาย...4 เทพ ZLC กับ ผีเสื้องาม 2 ตัว bigben126/38734/10/2553 8:13:38
ขออนุญาตขายไม้ But 3 ไม้ที่เหลือ...อัพเดทนะครับ bigben5/12024/10/2553 8:04:22
ขายกระบี่ คมคม หลายด้าม panther40/24624/10/2553 7:24:30
Acoustic FL มือ 1 ราคาพอดีๆ bueipong7/9624/10/2553 7:23:50
ขายเสื้อ li-ning ลายมังกรสวยเทพๆ ราคา390บาทเท่านั้น มีเฉพาะเบอ์M (21ก.ย) สรยุทธ12/18354/10/2553 2:55:47
ขอซื้อ schlager ด้ามFL ตูดผีเสื้อ คนตรัง3/9624/10/2553 2:35:48
ถามพี่ช้างเรื่องไม้ zumizoom2/7753/10/2553 23:23:35
ถึงคุณ Bobbie ครับ packkie5614/10213/10/2553 23:07:05
(((รับ))) Timo T5000 มือ 2 ราคาไม่แรง backhand22/13673/10/2553 22:44:41
ขายยาง wut00712/13433/10/2553 21:29:33
ขายไม้ STIGA OFF CR WRB ST Joey25257/10153/10/2553 21:16:00
น้ำยาเคลือบ andro ทาหน้าไม้ feel เปลี่ยนไหมครับ นพ. ณรงค์2/7813/10/2553 20:36:48
idol ของใครมารับคำแนะนำกัน เบ้บ1/6863/10/2553 20:34:51
รับซื้อไม้ acoustic สภาพดี ราคาไม่แรงครับ ชางมิน5/10163/10/2553 12:37:15
รับ ยางจีน ยุโรป ราคาเบาๆครับ KreangaMD25/14933/10/2553 11:35:56
ขายไม้ TIBHAR RAPID CABON สภาพ 90 ราคา1000บาท + ยาง 2 แผ่น tiamo20/13993/10/2553 11:04:36
น้ำซืมเข้าป้ายยี่ห้อ ป้องกันยังไงครับ supakijtaz2/8023/10/2553 10:47:56
ไม้ Butt spirit ตูดผีเสื้อ มีบาโค๊ด dandc67/19423/10/2553 10:31:57
ขายไม้ปิงปอง Andro Donic Stiga But. CrazyMan22/27783/10/2553 10:29:08
ขายยาง 2 แผ่น damdam20/16183/10/2553 10:21:24
โปรฯ เซี่ยงไฮ้ฯ ต.ค.53 coffee guide16/19323/10/2553 8:19:06
ขอรับ sword KING SER 90 tee-holiday4/14703/10/2553 7:12:52
สอนปิงปองสำหรับผู้ที่สนใจ อิอิอิ0/6333/10/2553 6:52:38
Mizunoมือ2ซื้อ1แถม1 chaiyaroj11/11233/10/2553 3:17:37
โปรโมชั่นรองเท้า li-ning รุ่น 2YMD649-3 ราคา1900บาทเท่านั้น มีจำนวนจำกัด (21ก.ย) สรยุทธ11/8273/10/2553 1:18:13
โปรโมชั่นรองเท้า li-ning รุ่น 2YMD649-3 ราคา2900บาทเท่านั้น มีจำนวนจำกัด (1ส.ค) สรยุทธ17/37723/10/2553 0:21:38
เกี่ยวกับ Hericane blue spong peterpan0933/10282/10/2553 21:16:28
$.sprin art ดำ-แดง 2.1 Rounddell 2.1 แดง carbonz9/11342/10/2553 20:51:20
ขาย ไม้ nittaku runlox-5 ราคา 650 บาท ครับ เข้ามาดูครับ maze19/17622/10/2553 20:08:54
ขายไม้ปิงปอง มีไม้เปล่า Xushofa สภาพ100เปอ patitunk8/13802/10/2553 19:19:24
ขายยาง PRYDE 40 ดำแดง MAX แผ่นสี่เหลี่ยมใหม่ อิอิอิ3/7312/10/2553 18:06:52
Page :  1  2  3  4  5  6  7  8  9  10  11  12  13  14  15  16  17  18  19  20  21  22  23  24  25  26  27  28  29  30  31  32  33  34  35  36  37  38  39  40  41  42  43  44  45  46  47  48  49  50  51  52  53  54  55  56  57  58  59  60  61  62  63  64  65  66  67  68  69  70  71  72  73  74  75  76  77  78  79  80  81  82  83  84  85  86  87  88  89  90  91  92  93  94  95  96  97  98  99  100  101  102  103  104  105  106  107  108  109  110  111  112  113  114  115  116  117  118  119  120  121  122  123  124  125  126  127  128  129  130  131  132  133  134  135  136  137  138  139  140  141  142  143  144  145  146  147  148  149  150  151  152  153  154  155  156  157  158  159  160  161  162  163  164  165  166  167  168  169  170  171  172  173  174  175  176  177  178  179  180  181  182  183  184  185  186  187  188  189  190  191  192  193  194  195  196  197  198  199  200  201 
[ First ] [<< back ] [ next>> ] [ Last ]  
VIP SPONSOR

 

ห้ามอย่านำสินค้าหนีภาษี - สินค้าหิ้วเข้ามาเอง - สินค้าปลอม มาจำหน่ายในเวปนี้
 
© 2020 All Rights Reserved
Powered by
ThaiWebWizard.com